Location: ?????????
(41.2393°N, 22.9479°E)
Time: 13:26:23
(UTC+00:00)

Cosmos 1300 Rocket - Pass Details

Date: 17 November 2025
Orbit: 594 x 620 km, 82.5° (Epoch: 06 December)

Event Time Altitude Azimuth Distance (km) Brightness Sun altitude
Rises 15:33:43 0° 190° (S) 2,879 7.5 -5.4°
Reaches altitude 10° 15:35:56 10° 192° (SSW) 1,976 6.6 -5.8°
Maximum altitude 15:40:18 76° 277° (W) 640 3.8 -6.6°
Drops below altitude 10° 15:44:42 10° 5° (N) 1,979 5.9 -7.3°
Sets 15:46:55 0° 7° (N) 2,884 6.7 -7.7°
